Location: La Fredeussais
(48.1780°N, 1.3980°W)
Time: 16:48:25
(UTC+00:00)

Cosmos 2112 Rocket - Pass Details

Date: 09 May 2021
Orbit: 755 x 787 km, 74.1° (Epoch: 24 June)

Event Time Altitude Azimuth Distance (km) Brightness Sun altitude
Rises 22:49:55 0° 336° (NNW) 3,285 8.8 -22.3°
Reaches altitude 10° 22:52:19 10° 335° (NNW) 2,355 7.6 -22.4°
Maximum altitude 22:57:41 78° 250° (WSW) 809 4.0 -22.7°
Enters shadow 22:58:51 55° 178° (S) 943 4.0 -22.7°
